CW1734 Weather Reports


Display with metric or nautical units.
time (UTC)temp
F
wind
direction
speed
MPH
gust
MPH
rain 1hr
in
rain 24hr
in
rain mn
in
humidity
%
barometer
mb
20260905225904 54 185 0.0 0.0 0.00 0.00 0.00 89 1024.9
20260905225404 54 185 0.0 0.0 0.00 0.00 0.00 89 1024.9
20260905224904 54 185 0.0 0.0 0.00 0.00 0.00 89 1024.9
20260905224404 54 185 0.0 0.0 0.00 0.00 0.00 89 1024.8
20260905223904 54 185 0.0 0.0 0.00 0.00 0.00 88 1024.8
20260905223404 54 185 0.0 0.0 0.00 0.00 0.00 88 1024.8
20260905222905 54 185 0.0 0.0 0.00 0.00 0.00 88 1024.8
20260905222404 54 185 0.0 0.0 0.00 0.00 0.00 88 1024.8
20260905221904 54 185 0.0 0.0 0.00 0.00 0.00 88 1024.8
20260905221404 55 185 0.0 0.0 0.00 0.00 0.00 87 1024.9
20260905220904 55 185 0.0 0.0 0.00 0.00 0.00 87 1024.9
20260905220404 55 185 0.0 0.0 0.00 0.00 0.00 87 1024.9
20260905215904 55 185 0.0 0.0 0.00 0.00 0.00 87 1024.9
20260905215404 55 185 0.0 0.0 0.00 0.00 0.00 86 1024.9
20260905214905 55 185 0.0 0.0 0.00 0.00 0.00 86 1024.9
20260905214404 55 185 0.0 0.0 0.00 0.00 0.00 86 1024.9
20260905213903 56 185 0.0 0.0 0.00 0.00 0.00 85 1024.9
20260905213404 56 185 0.0 0.0 0.00 0.00 0.00 85 1024.8
20260905212904 56 185 0.0 0.0 0.00 0.00 0.00 85 1024.8
20260905212403 56 185 0.0 0.0 0.00 0.00 0.00 85 1024.8
20260905211904 56 185 0.0 0.0 0.00 0.00 0.00 85 1024.8
20260905211404 56 185 0.0 0.0 0.00 0.00 0.00 84 1024.8
20260905210904 56 185 0.0 0.0 0.00 0.00 0.00 84 1024.7
20260905205903 57 185 0.0 0.0 0.00 0.00 0.00 84 1024.8
20260905205404 57 185 0.0 0.0 0.00 0.00 0.00 83 1024.8
20260905204404 58 185 0.0 0.0 0.00 0.00 0.00 82 1025.0
20260905203904 58 185 0.0 2.0 0.00 0.00 0.00 81 1024.9
20260905203404 58 186 0.0 2.0 0.00 0.00 0.00 81 1024.9
20260905202905 58 186 2.0 3.0 0.00 0.00 0.00 81 1024.9
20260905202404 58 188 1.0 3.0 0.00 0.00 0.00 80 1024.9
20260905201904 58 196 0.0 0.0 0.00 0.00 0.00 80 1024.9
20260905201405 58 196 0.0 0.0 0.00 0.00 0.00 80 1024.9
20260905200904 58 196 0.0 3.0 0.00 0.00 0.00 80 1024.9
20260905200404 58 202 2.0 3.0 0.00 0.00 0.00 80 1024.9
20260905195904 58 217 0.0 2.0 0.00 0.00 0.00 79 1024.9
20260905195404 59 218 0.0 3.0 0.00 0.00 0.00 79 1024.9
20260905194904 58 222 3.0 3.0 0.00 0.00 0.00 80 1024.9
20260905194405 58 205 0.0 0.0 0.00 0.00 0.00 79 1024.7
20260905193904 59 216 0.0 0.0 0.00 0.00 0.00 78 1024.7
20260905193404 59 216 0.0 0.0 0.00 0.00 0.00 77 1024.7
20260905192905 59 216 0.0 0.0 0.00 0.00 0.00 77 1024.4
20260905192404 60 216 0.0 0.0 0.00 0.00 0.00 76 1024.4
20260905191903 60 216 0.0 0.0 0.00 0.00 0.00 75 1024.4
20260905191404 60 216 0.0 0.0 0.00 0.00 0.00 74 1024.4
20260905190905 61 216 0.0 0.0 0.00 0.00 0.00 73 1024.4
20260905185904 62 217 0.0 0.0 0.00 0.00 0.00 72 1024.4
20260905185404 62 227 2.0 5.0 0.00 0.00 0.00 72 1024.4
20260905184904 62 204 2.0 5.0 0.00 0.00 0.00 72 1024.4
20260905184404 62 222 1.0 3.0 0.00 0.00 0.00 71 1024.5
20260905183904 62 226 1.0 3.0 0.00 0.00 0.00 70 1024.4
20260905182904 63 226 1.0 3.0 0.00 0.00 0.00 69 1024.4
20260905182403 63 216 1.0 3.0 0.00 0.00 0.00 68 1024.4
20260905181904 64 219 2.0 3.0 0.00 0.00 0.00 67 1024.4
20260905181405 64 231 1.0 6.0 0.00 0.00 0.00 67 1024.4
20260905180904 64 211 2.0 7.0 0.00 0.00 0.00 66 1024.4
20260905180404 65 202 3.0 6.0 0.00 0.00 0.00 66 1024.4
20260905175904 65 218 3.0 8.0 0.00 0.00 0.00 65 1024.5
20260905175404 65 212 5.0 9.0 0.00 0.00 0.00 65 1024.5
20260905174904 65 252 3.0 9.0 0.00 0.00 0.00 64 1024.5
20260905174404 65 202 5.0 12.0 0.00 0.00 0.00 64 1024.5
20260905173904 66 188 6.0 10.0 0.00 0.00 0.00 64 1024.5
20260905173404 66 204 2.0 7.0 0.00 0.00 0.00 64 1024.5
20260905172904 66 235 5.0 8.0 0.00 0.00 0.00 63 1024.5
20260905172405 66 215 5.0 9.0 0.00 0.00 0.00 63 1024.4
20260905171904 66 194 4.0 8.0 0.00 0.00 0.00 63 1024.4
20260905170904 66 213 5.0 10.0 0.00 0.00 0.00 62 1024.4
20260905170404 67 212 6.0 12.0 0.00 0.00 0.00 62 1024.4
20260905165904 67 217 4.0 7.0 0.00 0.00 0.00 63 1024.4
20260905165404 67 237 4.0 8.0 0.00 0.00 0.00 62 1024.4
20260905164404 67 219 4.0 12.0 0.00 0.00 0.00 62 1024.4
20260905163904 67 215 6.0 13.0 0.00 0.00 0.00 62 1024.5
20260905163404 67 218 4.0 12.0 0.00 0.00 0.00 62 1024.5
20260905162404 68 217 5.0 9.0 0.00 0.00 0.00 62 1024.5
20260905161904 68 203 3.0 12.0 0.00 0.00 0.00 62 1024.5
20260905161404 68 201 7.0 12.0 0.00 0.00 0.00 61 1024.4
20260905160904 68 230 5.0 9.0 0.00 0.00 0.00 61 1024.5
20260905160404 68 207 5.0 9.0 0.00 0.00 0.00 61 1024.5
20260905155904 68 201 5.0 9.0 0.00 0.00 0.00 61 1024.5
20260905155405 68 207 5.0 9.0 0.00 0.00 0.00 62 1024.7
20260905154904 68 190 5.0 12.0 0.00 0.00 0.00 61 1024.7
20260905154403 68 205 6.0 12.0 0.00 0.00 0.00 61 1024.7
20260905153904 68 180 4.0 10.0 0.00 0.00 0.00 61 1024.7
20260905152404 68 226 5.0 10.0 0.00 0.00 0.00 60 1024.7
20260905151904 68 177 4.0 9.0 0.00 0.00 0.00 60 1024.7
20260905151404 69 186 5.0 10.0 0.00 0.00 0.00 60 1024.8
20260905150404 69 243 3.0 13.0 0.00 0.00 0.00 59 1024.7
20260905145904 69 206 8.0 13.0 0.00 0.00 0.00 58 1024.7
20260905145404 69 191 5.0 10.0 0.00 0.00 0.00 58 1024.7
20260905144904 70 222 5.0 12.0 0.00 0.00 0.00 59 1024.5
20260905143404 71 238 5.0 8.0 0.00 0.00 0.00 57 1024.5
20260905142904 71 227 5.0 10.0 0.00 0.00 0.00 57 1024.5
20260905142404 71 163 5.0 10.0 0.00 0.00 0.00 57 1024.5
20260905141904 71 222 4.0 8.0 0.00 0.00 0.00 55 1024.5
20260905141404 71 209 5.0 10.0 0.00 0.00 0.00 55 1024.7
20260905140904 71 202 6.0 12.0 0.00 0.00 0.00 55 1024.6
20260905140403 71 222 7.0 12.0 0.00 0.00 0.00 56 1024.6
20260905135904 71 228 6.0 12.0 0.00 0.00 0.00 55 1024.6
20260905135404 71 186 3.0 14.0 0.00 0.00 0.00 55 1024.6
20260905134903 71 197 5.0 12.0 0.00 0.00 0.00 56 1024.5
20260905134404 72 234 3.0 8.0 0.00 0.00 0.00 55 1024.5
20260905133904 71 217 5.0 10.0 0.00 0.00 0.00 55 1024.5
20260905133404 71 219 5.0 12.0 0.00 0.00 0.00 55 1024.5
20260905132904 71 250 5.0 8.0 0.00 0.00 0.00 55 1024.5
20260905132404 72 187 3.0 12.0 0.00 0.00 0.00 53 1024.5
20260905131904 71 245 4.0 8.0 0.00 0.00 0.00 56 1024.6
20260905131403 71 223 7.0 12.0 0.00 0.00 0.00 55 1024.6
20260905130904 71 205 5.0 12.0 0.00 0.00 0.00 54 1024.6
20260905130404 71 238 3.0 6.0 0.00 0.00 0.00 57 1024.5
20260905125904 71 239 4.0 9.0 0.00 0.00 0.00 58 1024.5
20260905125403 71 238 6.0 10.0 0.00 0.00 0.00 56 1024.5
20260905124904 70 204 5.0 9.0 0.00 0.00 0.00 56 1024.5
20260905124404 70 230 3.0 9.0 0.00 0.00 0.00 58 1024.5
20260905123904 71 238 5.0 8.0 0.00 0.00 0.00 53 1024.5
20260905123404 70 232 2.0 7.0 0.00 0.00 0.00 55 1024.5
20260905122403 71 254 3.0 7.0 0.00 0.00 0.00 54 1024.5
20260905121404 71 208 4.0 8.0 0.00 0.00 0.00 55 1024.4
20260905120904 71 232 4.0 8.0 0.00 0.00 0.00 56 1024.4
20260905115904 70 224 2.0 6.0 0.00 0.00 0.00 56 1024.4
20260905115404 71 257 5.0 9.0 0.00 0.00 0.00 57 1024.4
20260905114904 71 283 3.0 9.0 0.00 0.00 0.00 58 1024.4
20260905114404 70 313 6.0 12.0 0.00 0.00 0.00 57 1024.3
20260905113904 69 290 4.0 7.0 0.00 0.00 0.00 57 1024.4
20260905113404 69 271 6.0 9.0 0.00 0.00 0.00 60 1024.4
20260905112904 68 295 7.0 9.0 0.00 0.00 0.00 58 1024.4
20260905111904 70 323 5.0 9.0 0.00 0.00 0.00 56 1024.4
20260905111404 70 291 6.0 10.0 0.00 0.00 0.00 59 1024.4
20260905110904 69 255 3.0 8.0 0.00 0.00 0.00 58 1024.4
20260905110403 69 237 3.0 7.0 0.00 0.00 0.00 57 1024.4
20260905105904 69 221 5.0 9.0 0.00 0.00 0.00 61 1024.4
20260905105403 68 322 4.0 12.0 0.00 0.00 0.00 57 1024.4
20260905104904 69 287 9.0 13.0 0.00 0.00 0.00 59 1024.5
20260905104404 67 205 3.0 8.0 0.00 0.00 0.00 60 1024.5
20260905103905 67 296 5.0 10.0 0.00 0.00 0.00 61 1024.5
20260905103404 67 278 5.0 12.0 0.00 0.00 0.00 61 1024.5
20260905102403 68 268 5.0 10.0 0.00 0.00 0.00 64 1024.6
20260905101403 67 295 8.0 15.0 0.00 0.00 0.00 64 1024.6
20260905100904 65 274 5.0 10.0 0.00 0.00 0.00 66 1024.5
20260905100404 64 297 5.0 9.0 0.00 0.00 0.00 63 1024.5
20260905095903 65 287 6.0 10.0 0.00 0.00 0.00 66 1024.3
20260905095404 65 276 5.0 9.0 0.00 0.00 0.00 64 1024.3
20260905094904 66 274 6.0 14.0 0.00 0.00 0.00 64 1024.3
20260905094405 65 278 5.0 9.0 0.00 0.00 0.00 68 1024.3
20260905093404 66 266 6.0 9.0 0.00 0.00 0.00 66 1024.3
20260905092904 66 291 7.0 10.0 0.00 0.00 0.00 66 1024.3
20260905092404 66 262 3.0 9.0 0.00 0.00 0.00 65 1024.2
20260905091904 66 271 4.0 12.0 0.00 0.00 0.00 68 1024.1
20260905091403 66 281 8.0 13.0 0.00 0.00 0.00 66 1024.1
20260905090904 66 278 5.0 7.0 0.00 0.00 0.00 71 1024.1
20260905090404 65 320 5.0 9.0 0.00 0.00 0.00 69 1024.1
20260905085904 65 300 6.0 13.0 0.00 0.00 0.00 69 1023.8
20260905085404 65 278 6.0 12.0 0.00 0.00 0.00 70 1023.8
20260905084904 64 301 7.0 10.0 0.00 0.00 0.00 70 1023.8
20260905084404 64 284 6.0 12.0 0.00 0.00 0.00 70 1023.8
20260905083403 64 265 5.0 9.0 0.00 0.00 0.00 72 1023.8
20260905082903 64 269 4.0 10.0 0.00 0.01 0.00 72 1023.8
20260905082404 64 290 6.0 10.0 0.00 0.02 0.00 72 1023.8
20260905081903 63 289 6.0 10.0 0.00 0.03 0.00 73 1023.8
20260905081404 63 268 4.0 10.0 0.00 0.06 0.00 74 1023.8
20260905080904 63 271 4.0 8.0 0.00 0.11 0.00 77 1023.5
20260905080405 62 287 6.0 10.0 0.00 0.11 0.00 77 1023.5
20260905075904 62 286 6.0 9.0 0.00 0.11 0.00 79 1023.5
20260905074904 61 292 5.0 9.0 0.00 0.11 0.00 80 1023.5
20260905073905 61 279 5.0 8.0 0.00 0.11 0.00 83 1023.4
20260905072904 60 268 5.0 8.0 0.00 0.11 0.00 84 1023.3
20260905072403 60 269 4.0 7.0 0.00 0.11 0.00 86 1023.2
20260905071904 59 288 5.0 6.0 0.00 0.11 0.00 87 1023.2
20260905070904 58 213 1.0 3.0 0.00 0.11 0.00 88 1022.9
20260905070404 58 209 2.0 3.0 0.00 0.11 0.00 88 1022.9
20260905065904 58 214 2.0 3.0 0.00 0.11 0.00 88 1022.9
20260905064903 58 209 2.0 3.0 0.00 0.11 0.00 88 1022.9
20260905063904 57 211 2.0 3.0 0.00 0.11 0.00 88 1022.9
20260905063403 57 238 1.0 2.0 0.00 0.11 0.00 88 1022.9
20260905062904 57 223 0.0 2.0 0.00 0.11 0.00 88 1022.9
20260905062405 57 221 2.0 3.0 0.00 0.11 0.00 88 1022.9
20260905061904 57 225 1.0 3.0 0.00 0.11 0.00 88 1022.7
20260905061404 57 226 0.0 3.0 0.00 0.11 0.00 87 1022.7
20260905060904 57 222 0.0 0.0 0.00 0.11 0.00 87 1022.7
20260905060404 57 222 0.0 0.0 0.00 0.11 0.00 87 1022.7
20260905055404 57 222 1.0 3.0 0.00 0.11 0.00 86 1022.6
20260905054405 57 221 1.0 2.0 0.00 0.11 0.00 86 1022.6
20260905052904 57 218 1.0 3.0 0.00 0.11 0.00 86 1022.3
20260905052403 58 230 1.0 2.0 0.00 0.11 0.00 86 1022.3
20260905051904 58 220 1.0 3.0 0.00 0.11 0.00 86 1022.3
20260905051404 58 264 1.0 1.0 0.00 0.11 0.00 86 1022.3
20260905050904 58 264 1.0 2.0 0.00 0.11 0.00 86 1022.2
20260905050403 58 220 0.0 1.0 0.00 0.11 0.00 85 1022.2
20260905045904 58 211 2.0 3.0 0.00 0.11 0.00 85 1022.2
20260905045404 58 221 2.0 5.0 0.00 0.11 0.00 85 1022.0
20260905044904 58 222 3.0 5.0 0.00 0.11 0.00 85 1022.0
20260905044404 58 222 3.0 6.0 0.00 0.11 0.00 85 1021.9
20260905043904 58 207 3.0 6.0 0.00 0.11 0.00 85 1021.9
20260905043403 58 204 3.0 7.0 0.00 0.11 0.00 84 1021.9
20260905042904 58 201 3.0 7.0 0.00 0.11 0.00 84 1021.8
20260905041904 58 205 2.0 5.0 0.00 0.11 0.00 84 1021.8
20260905041404 58 229 2.0 5.0 0.00 0.11 0.00 84 1021.6
20260905040904 58 228 0.0 0.0 0.00 0.11 0.00 84 1021.6
20260905040404 58 243 0.0 5.0 0.00 0.11 0.00 84 1021.6
20260905035904 58 225 1.0 3.0 0.00 0.11 0.00 84 1021.6
20260905035404 58 247 1.0 5.0 0.00 0.11 0.00 84 1021.6
20260905034904 58 251 1.0 3.0 0.00 0.11 0.00 84 1021.5
20260905034403 59 285 2.0 5.0 0.00 0.11 0.00 84 1021.4
20260905033904 59 270 3.0 6.0 0.00 0.11 0.00 84 1021.4
20260905033405 59 261 2.0 3.0 0.00 0.11 0.00 84 1021.4
20260905032904 59 266 3.0 8.0 0.00 0.11 0.00 84 1021.4
20260905032404 59 276 3.0 6.0 0.00 0.11 0.00 84 1021.4
20260905031903 59 282 1.0 6.0 0.00 0.11 0.00 84 1021.4
20260905031404 59 245 1.0 3.0 0.00 0.11 0.00 84 1021.3
20260905030904 59 267 1.0 3.0 0.00 0.11 0.00 84 1021.1
20260905030403 58 265 2.0 6.0 0.00 0.11 0.00 84 1021.1
20260905025904 58 252 2.0 3.0 0.00 0.11 0.00 84 1021.0
20260905025404 58 269 2.0 5.0 0.00 0.11 0.00 84 1021.0
20260905024404 58 211 1.0 6.0 0.00 0.11 0.00 85 1021.0
20260905023904 58 253 2.0 5.0 0.00 0.11 0.00 85 1021.0
20260905023404 58 269 2.0 5.0 0.00 0.12 0.00 85 1021.0
20260905022904 58 258 2.0 5.0 0.00 0.12 0.00 85 1021.0
20260905022404 57 233 1.0 3.0 0.00 0.12 0.00 85 1020.7
20260905021904 57 237 0.0 7.0 0.00 0.12 0.00 85 1020.7
20260905021404 57 258 3.0 6.0 0.00 0.12 0.00 85 1020.7
20260905020404 57 271 2.0 5.0 0.00 0.12 0.00 85 1020.7
20260905015904 57 216 2.0 5.0 0.00 0.12 0.00 86 1020.7
20260905015404 57 230 2.0 5.0 0.00 0.12 0.00 86 1020.7
20260905014904 57 237 0.0 2.0 0.00 0.13 0.00 86 1020.7
20260905014404 57 243 1.0 3.0 0.00 0.13 0.00 85 1020.7
20260905013904 57 218 2.0 5.0 0.00 0.13 0.00 85 1020.6
20260905012404 57 251 1.0 3.0 0.00 0.13 0.00 85 1020.6
20260905011904 57 238 1.0 2.0 0.00 0.13 0.00 85 1020.5
20260905011403 57 236 1.0 5.0 0.00 0.13 0.00 85 1020.5
20260905010403 57 216 2.0 3.0 0.00 0.13 0.00 84 1020.5
20260905005904 58 205 2.0 3.0 0.00 0.13 0.00 84 1020.5
20260905004904 58 248 2.0 5.0 0.00 0.13 0.00 84 1020.5
20260905004404 58 249 2.0 5.0 0.00 0.13 0.00 84 1020.4
20260905003904 58 266 1.0 3.0 0.00 0.13 0.00 83 1020.4
20260905003404 58 185 2.0 5.0 0.00 0.13 0.00 83 1020.4
20260905002404 58 251 2.0 3.0 0.00 0.13 0.00 83 1020.4
20260905001904 58 223 2.0 3.0 0.00 0.13 0.00 82 1020.4
20260905001404 59 253 2.0 5.0 0.00 0.13 0.00 82 1020.4
20260905000904 59 238 2.0 6.0 0.00 0.13 0.00 82 1020.4
20260905000404 59 227 2.0 5.0 0.00 0.13 0.00 82 1020.3
20260904235904 59 245 2.0 6.0 0.00 0.13 0.00 82 1020.3
20260904235404 59 210 3.0 5.0 0.00 0.13 0.00 82 1020.3
20260904234403 59 254 2.0 6.0 0.00 0.13 0.00 81 1020.1
20260904233904 59 240 2.0 6.0 0.00 0.13 0.00 81 1020.1
20260904233403 59 253 2.0 6.0 0.00 0.13 0.00 81 1020.1
20260904232904 59 250 3.0 6.0 0.00 0.13 0.00 81 1020.1
20260904232404 59 255 2.0 6.0 0.00 0.13 0.00 81 1020.1
20260904231903 59 255 3.0 7.0 0.00 0.13 0.00 81 1020.1
20260904231404 59 247 3.0 6.0 0.00 0.13 0.00 81 1020.1
20260904230903 59 222 2.0 9.0 0.00 0.13 0.00 81 1020.1